Location: Hamilton
(37.7830°S, 175.2830°E)
Time: 03:12:24
(UTC+13:00)

Spot 2 Rocket - Pass Details

Date: 24 January 2019
Orbit: 757 x 772 km, 98.6° (Epoch: 13 October)

Event Time Altitude Azimuth Distance (km) Brightness Sun altitude
Rises 23:13:42 0° 173° (S) 3,280 7.5 -24.5°
Reaches altitude 10° 23:16:05 10° 178° (S) 2,343 6.7 -24.8°
Maximum altitude 23:21:03 49° 252° (WSW) 992 4.3 -25.3°
Enters shadow 23:23:34 27° 312° (NW) 1,458 4.8 -25.6°
